Weather History for Newark Heath, OH

Change the Weather History Date:

Friday, April 18, 2014

  Actual Average Record
Temperature  
Mean Temperature 52 °F -  
Max Temperature 69 °F 64 °F 87 °F (1976)
Min Temperature 36 °F 40 °F 23 °F (1951)
Degree Days  
Heating Degree Days 13    
Growing Degree Days 2 (Base 50)    
Moisture  
Dew Point 36 °F    
Average Humidity 59    
Maximum Humidity 89    
Minimum Humidity 27    
Precipitation  
Precipitation 0.00 in - - ()
Sea Level Pressure  
Sea Level Pressure 30.26 in    
Wind  
Wind Speed 2 mph (WNW)    
Max Wind Speed 10 mph    
Max Gust Speed -    
Visibility 10 miles    
Events      
Averages and records for this station are not official NWS values.
T = Trace of Precipitation, MM = Missing Value Source: NWS Daily Summary

Daily Weather History Graph

Daily Weather History Graph

Search for Another Location

Airport:

Trip Planner

Search our weather history database for the weather conditions in past years. The results will help you decide how hot, cold, wet, or windy it might be!

Date:

Astronomy

Apr. 18, 2014 Rise Set
Actual Time 6:47 AM EDT 8:11 PM EDT
Civil Twilight 6:19 AM EDT 8:39 PM EDT
Nautical Twilight 5:45 AM EDT 9:13 PM EDT
Astronomical Twilight 5:09 AM EDT 9:49 PM EDT
Moon 11:55 PM EDT (4/18) 9:08 AM EDT (4/18)
Length of Visible Light 14h 20m
Length of Day
13h 23m
Waning Gibbous, 87% of the Moon is Illuminated
Apr 18
Waning Gibbous
Apr 22
Last Quarter
Apr 29
New
May 6
First Quarter
May 14
Full

Hourly Weather History & Observations

Time (EDT) Temp. Dew Point Humidity Pressure Visibility Wind Dir Wind Speed Gust Speed Precip Events Conditions
12:54 AM 39.9 °F 34.0 °F 79% 30.29 in 10.0 mi Calm Calm - N/A   Clear
1:54 AM 39.0 °F 34.0 °F 82% 30.28 in 10.0 mi Calm Calm - N/A   Clear
2:54 AM 36.0 °F 33.1 °F 89% 30.27 in 10.0 mi Calm Calm - N/A   Clear
3:54 AM 37.9 °F 33.1 °F 83% 30.27 in 10.0 mi Calm Calm - N/A   Clear
4:54 AM 36.0 °F 33.1 °F 89% 30.28 in 10.0 mi Calm Calm - N/A   Clear
5:54 AM 36.0 °F 33.1 °F 89% 30.29 in 10.0 mi Calm Calm - N/A   Clear
6:54 AM 37.0 °F 33.1 °F 86% 30.29 in 10.0 mi Calm Calm - N/A   Clear
7:54 AM 39.9 °F 36.0 °F 86% 30.30 in 10.0 mi Calm Calm - N/A   Clear
8:54 AM 45.0 °F 37.9 °F 76% 30.30 in 10.0 mi Calm Calm - N/A   Clear
9:54 AM 51.1 °F 37.0 °F 59% 30.30 in 10.0 mi Calm Calm - N/A   Clear
10:54 AM 55.9 °F 33.1 °F 42% 30.30 in 10.0 mi Variable 4.6 mph - N/A   Clear
11:54 AM 62.1 °F 35.1 °F 37% 30.29 in 10.0 mi SSW 3.5 mph - N/A   Clear
12:54 PM 66.0 °F 33.1 °F 29% 30.27 in 10.0 mi Calm Calm - N/A   Clear
1:54 PM 66.9 °F 34.0 °F 30% 30.26 in 10.0 mi West 10.4 mph - N/A   Clear
2:54 PM 68.0 °F 33.1 °F 27% 30.25 in 10.0 mi West 8.1 mph - N/A   Clear
3:54 PM 68.0 °F 34.0 °F 28% 30.24 in 10.0 mi West 9.2 mph - N/A   Partly Cloudy
4:54 PM 68.0 °F 34.0 °F 28% 30.23 in 10.0 mi Variable 6.9 mph - N/A   Scattered Clouds
5:54 PM 66.9 °F 34.0 °F 30% 30.22 in 10.0 mi Variable 3.5 mph - N/A   Overcast
6:54 PM 66.0 °F 35.1 °F 32% 30.21 in 10.0 mi North 5.8 mph - N/A   Partly Cloudy
7:54 PM 61.0 °F 37.9 °F 42% 30.21 in 10.0 mi NW 4.6 mph - N/A   Clear
8:54 PM 55.9 °F 41.0 °F 57% 30.22 in 10.0 mi Calm Calm - N/A   Clear
9:54 PM 53.1 °F 42.1 °F 66% 30.23 in 10.0 mi Calm Calm - N/A   Clear
10:54 PM 48.9 °F 42.1 °F 77% 30.23 in 10.0 mi Calm Calm - N/A   Clear
11:54 PM 48.0 °F 42.1 °F 80% 30.23 in 10.0 mi Calm Calm - N/A   Clear